CZ-4 DEB, 26151

Orbit data source: Space-Track

CZ-4 DEB, 26151 is space debris in SSO originally from a launch on Thu, 14 Oct 1999 UTC launched from the Taiyaun Space Center, China (TSC). Debris objects in space refer to the collection of defunct objects orbiting the Earth. Examples of debris include non-operational satellites, rocket bodies, and fragments generated from explosions, collisions, or faulty payload assembly.

Loading next visibility...
Identifier
26151, 1999-057AM
Orbit
SSO
Country
Flag of CNCN / PRC
Related business
Manufacturer
Unknown
Mission
Spacecraft
Bus & Motor
Unknown
Mass
Unknown
Launch date (UTC)
1999-10-14 (26 years ago)
Launch vehicle
Unknown
Launch site
Taiyaun Space Center, China (TSC)
Object type
Payload
Rocket body
Debris
Shape & HBR
Unknown shape, 0.1 m
Radar Cross Section
Medium (>0.1 m² and <1 m²)

Expand to show TLE details & history
Last TLE update: 14 hours ago

TLE from 14 hours ago
0 CZ-4 DEB
1 26151U 99057AM  25294.91842735  .00002181  00000-0  21005-2 0  9998
2 26151  99.4291 247.6176 0612795  12.4052  21.4657 13.18869988227432
Epoch: 2025-10-21T22:02Z
TLE epoch observation values (Epoch: 2025-10-21T22:02:32.123Z)
Latitude
36.13905°
Longitude
-120.5436°
Altitude
766.327 km
Speed
7.683 km/s
True Right ascension
16h 02m 45s
True Declination
35° 58' 32"
Sunlit
Object was in daylight at epoch
Visualization orbit readout
Latitude
Unknown
Longitude
Unknown
Altitude
Unknown
Speed
Unknown
Apparent Right ascension
Unknown
Apparent Declination
Unknown
Sunlit
N/A
Visualization observer readout
Local Sidereal Time
07:07:08
Azimuth
Unknown
Elevation
Unknown
Doppler factor
Unknown
Orbital elements
Apogee altitude
1,649.902 km
Perigee altitude
722.806 km
Semi-major axis
7,564.491 km
Eccentricity
0.06128
Inclination
99.4291°
RAAN
247.6176°
Arg. of periapsis
12.4052°
True anomaly
24.2309°
Mean anomaly
21.4657°
Eccentric anomaly
22.82786°
Mean motion
3.29893 °/min
Orbital period
109.13 mins
BSTAR
0.0021005
Loading maneuver chart data...
Computing Atmospheric mass density...
Loading historical data...
Loading historical data...
Loading historical data...
Loading historical data...
Loading historical data...
Loading historical data...
Loading historical data...

Documentation

Showing up to 5 results
|